Weather History for KPNA - August, 2014

Change the Weather History Date:

Friday, August 15, 2014

  Actual Average (KBPI) Record (KBPI)
Temperature  
Mean Temperature 58 °F 60 °F  
Max Temperature 75 °F 80 °F 87 °F (2013)
Min Temperature 42 °F 41 °F 28 °F (1978)
Degree Days  
Heating Degree Days 6 5  
Month to date heating degree days 60  
Since 1 June heating degree days 482  
Since 1 July heating degree days 177  
Cooling Degree Days 0 0  
Month to date cooling degree days 12  
Year to date cooling degree days 36  
Since 1 June cooling degree days 36  
Growing Degree Days 8 (Base 50)    
Moisture  
Dew Point 44 °F    
Average Humidity 64    
Maximum Humidity 100    
Minimum Humidity 24    
Precipitation  
Precipitation 0.00 in 0.02 in 0.30 in (1980)
Month to date precipitation 0.35  
Year to date precipitation 4.32  
Sea Level Pressure  
Sea Level Pressure 30.28 in    
Wind  
Wind Speed 6 mph (WNW)    
Max Wind Speed 33 mph    
Max Gust Speed 40 mph    
Visibility 10 miles    
Events Thunderstorm    
T = Trace of Precipitation, MM = Missing Value Source: NWS Daily Summary

Daily Weather History Graph

Daily Weather History Graph

Search for Another Location

Airport or City:

Trip Planner

Search our weather history database for the weather conditions in past years. The results will help you decide how hot, cold, wet, or windy it might be!

Date:

Astronomy

Aug. 15, 2014 Rise Set
Actual Time 6:25 AM MDT 8:20 PM MDT
Civil Twilight 5:55 AM MDT 8:51 PM MDT
Nautical Twilight 5:17 AM MDT 9:28 PM MDT
Astronomical Twilight 4:37 AM MDT 10:08 PM MDT
Moon 11:15 PM MDT (8/15) 12:21 PM MDT (8/15)
Length of Visible Light 14h 56m
Length of Day
13h 55m
Waning Gibbous, 68% of the Moon is Illuminated
Aug 15
Waning Gibbous
Aug 17
Last Quarter
Aug 25
New
Sep 2
First Quarter
Sep 8
Full

Hourly Weather History & Observations

Time (MDT) Temp. Windchill Dew Point Humidity Pressure Visibility Wind Dir Wind Speed Gust Speed Precip Events Conditions
12:15 AM 48.2 °F - 46.4 °F 93% 30.27 in 10.0 mi WNW 4.6 mph - N/A   Clear
12:35 AM 50.0 °F - 48.2 °F 94% 30.27 in 10.0 mi NW 3.5 mph - N/A   Clear
12:55 AM 48.2 °F - 46.4 °F 93% 30.27 in 10.0 mi NW 5.8 mph - N/A   Clear
1:15 AM 46.4 °F 44.3 °F 46.4 °F 100% 30.27 in 10.0 mi WNW 4.6 mph - N/A   Clear
1:35 AM 46.4 °F 45.2 °F 46.4 °F 100% 30.27 in 10.0 mi NW 3.5 mph - N/A   Clear
1:55 AM 46.4 °F 44.3 °F 46.4 °F 100% 30.27 in 10.0 mi WNW 4.6 mph - N/A   Clear
2:15 AM 46.4 °F 42.9 °F 44.6 °F 93% 30.27 in 10.0 mi West 6.9 mph - N/A   Clear
2:35 AM 44.6 °F 41.4 °F 44.6 °F 100% 30.27 in 10.0 mi West 5.8 mph - N/A   Clear
2:55 AM 44.6 °F 43.1 °F 44.6 °F 100% 30.27 in 10.0 mi WNW 3.5 mph - N/A   Clear
3:15 AM 44.6 °F 41.4 °F 44.6 °F 100% 30.28 in 10.0 mi NW 5.8 mph - N/A   Clear
3:35 AM 44.6 °F 40.7 °F 44.6 °F 100% 30.29 in 10.0 mi NW 6.9 mph - N/A   Clear
3:55 AM 44.6 °F 42.2 °F 44.6 °F 100% 30.29 in 10.0 mi WNW 4.6 mph - N/A   Clear
4:35 AM 44.6 °F 41.4 °F 44.6 °F 100% 30.29 in 10.0 mi NW 5.8 mph - N/A   Clear
5:15 AM 44.6 °F 42.2 °F 44.6 °F 100% 30.29 in 10.0 mi WNW 4.6 mph - N/A   Clear
5:35 AM 44.6 °F 43.1 °F 44.6 °F 100% 30.29 in 10.0 mi NW 3.5 mph - N/A   Clear
5:55 AM 42.8 °F 41.1 °F 42.8 °F 100% 30.29 in 10.0 mi NW 3.5 mph - N/A   Clear
6:15 AM 42.8 °F - 42.8 °F 100% 30.31 in 10.0 mi North - - N/A   Clear
6:35 AM 44.6 °F - 44.6 °F 100% 30.30 in 10.0 mi North - - N/A   Clear
6:55 AM 44.6 °F - 42.8 °F 93% 30.30 in 10.0 mi North - - N/A   Clear
7:15 AM 42.8 °F - 42.8 °F 100% 30.30 in 10.0 mi North - - N/A   Clear
7:35 AM 44.6 °F - 44.6 °F 100% 30.30 in 10.0 mi North - - N/A   Clear
7:55 AM 46.4 °F 44.3 °F 46.4 °F 100% 30.30 in 10.0 mi West 4.6 mph - N/A   Clear
8:15 AM 50.0 °F - 46.4 °F 87% 30.30 in 10.0 mi West 3.5 mph - N/A   Clear
8:35 AM 53.6 °F - 48.2 °F 82% 30.30 in 10.0 mi WSW 3.5 mph - N/A   Clear
8:55 AM 55.4 °F - 48.2 °F 77% 30.31 in 10.0 mi West 3.5 mph - N/A   Clear
9:15 AM 59.0 °F - 48.2 °F 67% 30.31 in 10.0 mi North 3.5 mph - N/A   Clear
9:35 AM 62.6 °F - 48.2 °F 59% 30.31 in 10.0 mi Calm Calm - N/A   Clear
9:55 AM 62.6 °F - 48.2 °F 59% 30.31 in 10.0 mi Calm Calm - N/A   Clear
10:15 AM 64.4 °F - 48.2 °F 56% 30.31 in 10.0 mi Calm Calm - N/A   Clear
10:35 AM 68.0 °F - 46.4 °F 46% 30.32 in 10.0 mi Calm Calm - N/A   Clear
11:15 AM 69.8 °F - 42.8 °F 38% 30.31 in 10.0 mi SSW 4.6 mph - N/A   Clear
11:35 AM 69.8 °F - 42.8 °F 38% 30.31 in 10.0 mi South 5.8 mph - N/A   Clear
11:55 AM 69.8 °F - 42.8 °F 38% 30.31 in 10.0 mi South 3.5 mph - N/A   Clear
12:15 PM 71.6 °F - 42.8 °F 35% 30.31 in 10.0 mi SSE 6.9 mph - N/A   Clear
12:35 PM 71.6 °F - 42.8 °F 35% 30.30 in 10.0 mi SSE 9.2 mph - N/A   Clear
12:55 PM 73.4 °F - 42.8 °F 33% 30.30 in 10.0 mi West 4.6 mph - N/A   Scattered Clouds
1:15 PM 73.4 °F - 41.0 °F 31% 30.29 in 10.0 mi WSW 4.6 mph - N/A   Scattered Clouds
1:35 PM 75.2 °F - 41.0 °F 29% 30.29 in 10.0 mi WSW 8.1 mph - N/A   Scattered Clouds
1:55 PM 75.2 °F - 37.4 °F 25% 30.27 in 10.0 mi NW 4.6 mph - N/A   Scattered Clouds
2:15 PM 75.2 °F - 35.6 °F 24% 30.27 in 7.0 mi SSE 8.1 mph - N/A   Mostly Cloudy
2:35 PM 73.4 °F - 35.6 °F 25% 30.26 in 10.0 mi SE 3.5 mph - N/A   Overcast
2:55 PM 71.6 °F - 37.4 °F 29% 30.28 in 10.0 mi WNW 33.4 mph 40.3 mph N/A   Mostly Cloudy
3:15 PM 71.6 °F - 41.0 °F 33% 30.27 in 10.0 mi NNW 16.1 mph 29.9 mph N/A   Mostly Cloudy
3:35 PM 75.2 °F - 37.4 °F 25% 30.26 in 10.0 mi NNW 12.7 mph - N/A Thunderstorm Scattered Clouds
3:55 PM 75.2 °F - 37.4 °F 25% 30.26 in 10.0 mi NW 6.9 mph - N/A   Clear
4:15 PM 75.2 °F - 37.4 °F 25% 30.25 in 10.0 mi NW 5.8 mph - N/A   Clear
4:35 PM 73.4 °F - 39.2 °F 29% 30.25 in 10.0 mi NNW 8.1 mph - N/A   Scattered Clouds
4:55 PM 73.4 °F - 37.4 °F 27% 30.25 in 10.0 mi WNW 4.6 mph - N/A   Scattered Clouds
5:15 PM 75.2 °F - 35.6 °F 24% 30.25 in 10.0 mi West 5.8 mph - N/A   Clear
5:35 PM 73.4 °F - 37.4 °F 27% 30.25 in 10.0 mi NNW 9.2 mph - N/A   Clear
5:55 PM 73.4 °F - 39.2 °F 29% 30.26 in 10.0 mi NW 6.9 mph - N/A   Clear
6:15 PM 73.4 °F - 41.0 °F 31% 30.26 in 10.0 mi WNW 8.1 mph - N/A   Clear
6:35 PM 73.4 °F - 41.0 °F 31% 30.25 in 10.0 mi NW 11.5 mph - N/A   Clear
6:55 PM 71.6 °F - 39.2 °F 31% 30.25 in 10.0 mi WNW 10.4 mph - N/A   Clear
7:15 PM 71.6 °F - 41.0 °F 33% 30.26 in 10.0 mi WNW 11.5 mph - N/A   Clear
7:35 PM 69.8 °F - 44.6 °F 40% 30.26 in 10.0 mi NW 10.4 mph - N/A   Clear
7:55 PM 66.2 °F - 44.6 °F 46% 30.26 in 10.0 mi NW 10.4 mph - N/A   Clear
8:15 PM 64.4 °F - 46.4 °F 52% 30.26 in 10.0 mi WNW 6.9 mph - N/A   Clear
8:35 PM 60.8 °F - 46.4 °F 59% 30.27 in 10.0 mi WNW 4.6 mph - N/A   Clear
8:55 PM 57.2 °F - 46.4 °F 67% 30.27 in 10.0 mi West 4.6 mph - N/A   Clear
9:15 PM 55.4 °F - 46.4 °F 72% 30.27 in 10.0 mi WNW 4.6 mph - N/A   Clear
9:35 PM 55.4 °F - 46.4 °F 72% 30.28 in 10.0 mi West 5.8 mph - N/A   Clear
9:55 PM 55.4 °F - 46.4 °F 72% 30.29 in 10.0 mi WNW 5.8 mph - N/A   Clear
10:15 PM 53.6 °F - 48.2 °F 82% 30.29 in 10.0 mi West 5.8 mph - N/A   Clear
10:35 PM 53.6 °F - 46.4 °F 77% 30.29 in 10.0 mi NNW 4.6 mph - N/A   Clear
10:55 PM 53.6 °F - 46.4 °F 77% 30.29 in 10.0 mi NNW 3.5 mph - N/A   Clear
11:15 PM 51.8 °F - 44.6 °F 76% 30.29 in 10.0 mi NW 9.2 mph - N/A   Clear
11:35 PM 51.8 °F - 44.6 °F 76% 30.29 in 10.0 mi NW 4.6 mph - N/A   Clear
11:55 PM 50.0 °F - 44.6 °F 82% 30.29 in 10.0 mi WNW 4.6 mph - N/A   Clear